COSMOS 1275 DEB, 13797

Orbit data source: Space-Track

COSMOS 1275 DEB, 13797 is space debris in LEO originally from a launch on Thu, 04 Jun 1981 UTC launched from the Plesetsk Missile And Space Complex (PKMTR). Debris objects in space refer to the collection of defunct objects orbiting the Earth. Examples of debris include non-operational satellites, rocket bodies, and fragments generated from explosions, collisions, or faulty payload assembly.

Loading next visibility...
Identifier
13797, 1981-053GR
Orbit
LEO
Country
Flag of CISCIS
Related business
Manufacturer
Unknown
Mission
Spacecraft
Bus & Motor
Unknown
Mass
Unknown
Launch date (UTC)
1981-06-04 (44 years ago)
Launch vehicle
Unknown
Launch site
Plesetsk Missile And Space Complex (PKMTR)
Object type
Payload
Rocket body
Debris
Shape & HBR
Unknown shape, 0.1 m
Radar Cross Section
Small (<0.1 m²)

Expand to show TLE details & history
Last TLE update: 11 hours ago

TLE from 11 hours ago
0 COSMOS 1275 DEB
1 13797U 81053GR  25286.56879591  .00000653  00000-0  54929-3 0  9993
2 13797  82.8356 136.8274 0049600 234.9969 153.9038 13.86031217169246
Epoch: 2025-10-13T13:39Z
TLE epoch observation values (Epoch: 2025-10-13T13:39:03.966Z)
Latitude
28.94541°
Longitude
-86.34318°
Altitude
978.813 km
Speed
7.348 km/s
True Right ascension
09h 23m 10s
True Declination
28° 48' 16"
Sunlit
Object was in daylight at epoch
Visualization orbit readout
Latitude
Unknown
Longitude
Unknown
Altitude
Unknown
Speed
Unknown
Apparent Right ascension
Unknown
Apparent Declination
Unknown
Sunlit
N/A
Visualization observer readout
Local Sidereal Time
19:21:07
Azimuth
Unknown
Elevation
Unknown
Doppler factor
Unknown
Orbital elements
Apogee altitude
976.006 km
Perigee altitude
903.413 km
Semi-major axis
7,317.847 km
Eccentricity
0.00496
Inclination
82.8356°
RAAN
136.8274°
Arg. of periapsis
234.9969°
True anomaly
154.15243°
Mean anomaly
153.9038°
Eccentric anomaly
154.02825°
Mean motion
3.46711 °/min
Orbital period
103.83 mins
BSTAR
0.00054929
Loading maneuver chart data...
Computing Atmospheric mass density...
Loading historical data...
Loading historical data...
Loading historical data...
Loading historical data...
Loading historical data...
Loading historical data...
Loading historical data...

Documentation

Showing up to 5 results
|